CW7731 Weather Reports


time (UTC)temp
F
wind
direction
speed
knots
gust
knots
rain 1hr
in
rain 24hr
in
rain mn
in
humidity
%
barometer
mb
20260906103108 87 127 0.0 7.0 0.00 0.00 0.00 44 1020.5
20260906101136 86 65 0.0 8.7 0.00 0.00 0.00 46 1020.7
20260906100123 85 122 0.0 3.5 0.00 0.00 0.00 47 1020.7
20260906094139 85 172 0.0 4.3 0.00 0.00 0.00 48 1020.9
20260906093142 85 48 0.0 6.1 0.00 0.00 0.00 47 1021.0
20260906091136 84 109 1.7 7.8 0.00 0.00 0.00 49 1021.1
20260906090127 84 102 0.0 4.3 0.00 0.00 0.00 49 1021.1
20260906084101 83 40 0.0 9.6 0.00 0.00 0.00 50 1021.2
20260906083131 82 79 2.6 9.6 0.00 0.00 0.00 50 1021.2
20260906082105 83 74 0.9 8.7 0.00 0.00 0.00 51 1021.2
20260906081132 83 102 0.0 2.6 0.00 0.00 0.00 53 1021.1
20260906080142 83 103 0.9 6.1 0.00 0.00 0.00 53 1021.1
20260906075102 82 70 0.0 3.5 0.00 0.00 0.00 53 1021.1
20260906074112 82 30 0.9 8.7 0.00 0.00 0.00 54 1021.0
20260906073116 82 57 0.0 0.9 0.00 0.00 0.00 54 1021.0
20260906071135 81 14 0.0 3.5 0.00 0.00 0.00 56 1020.9
20260906070109 81 15 1.7 5.2 0.00 0.00 0.00 55 1020.9
20260906065108 81 67 0.0 5.2 0.00 0.00 0.00 56 1020.8
20260906064140 80 38 0.0 0.0 0.00 0.00 0.00 56 1020.8
20260906063138 80 26 0.0 0.0 0.00 0.00 0.00 58 1020.7
20260906062131 78 18 0.0 3.5 0.00 0.00 0.00 61 1020.6
20260906060107 74 267 0.0 3.5 0.00 0.00 0.00 72 1020.3
20260906055122 73 303 0.0 0.9 0.00 0.00 0.00 74 1020.1
20260906054107 73 304 0.0 0.9 0.00 0.00 0.00 75 1020.1
20260906053123 72 311 0.0 1.7 0.00 0.00 0.00 75 1020.0
20260906052138 72 310 0.0 0.0 0.00 0.00 0.00 76 1020.0
20260906051129 72 310 0.0 1.7 0.00 0.00 0.00 75 1019.8
20260906050115 72 314 0.0 0.9 0.00 0.00 0.00 76 1019.6
20260906045108 72 338 0.0 1.7 0.00 0.00 0.00 76 1019.6
20260906044122 72 314 0.0 7.8 0.00 0.00 0.00 76 1019.5
20260906043146 72 312 0.0 0.0 0.00 0.00 0.00 76 1019.4
20260906042107 72 313 0.0 0.0 0.00 0.00 0.00 76 1019.3
20260906041127 72 313 0.0 0.0 0.00 0.00 0.00 76 1019.3
20260906035131 73 302 0.0 1.7 0.00 0.00 0.00 75 1019.1
20260906033124 73 309 0.0 5.2 0.00 0.00 0.00 75 1018.9
20260906032122 73 300 0.0 1.7 0.00 0.00 0.00 75 1018.9
20260906031142 73 307 0.0 0.9 0.00 0.00 0.00 75 1018.9
20260906030115 73 314 0.0 4.3 0.00 0.00 0.00 75 1018.9
20260906025103 74 308 0.0 0.9 0.00 0.00 0.00 75 1018.9
20260906024145 74 308 0.0 0.0 0.00 0.00 0.00 75 1019.0
20260906023109 74 308 0.0 3.5 0.00 0.00 0.00 74 1018.9
20260906022131 74 313 0.0 4.3 0.00 0.00 0.00 74 1018.9
20260906021135 74 320 0.0 0.0 0.00 0.00 0.00 74 1018.9
20260906020119 74 320 0.0 2.6 0.00 0.00 0.00 74 1018.9
20260906015112 74 321 0.0 4.3 0.00 0.00 0.00 74 1018.9
20260906014115 75 321 0.0 0.0 0.00 0.00 0.00 74 1018.8
20260906013129 75 321 0.0 0.0 0.00 0.00 0.00 74 1018.7
20260906012125 75 321 0.0 0.9 0.00 0.00 0.00 73 1018.7
20260906011122 75 321 0.0 0.0 0.00 0.00 0.00 73 1018.7
20260906010138 75 321 0.0 0.9 0.00 0.00 0.00 73 1018.6
20260906005135 75 321 0.0 0.9 0.00 0.00 0.00 73 1018.6
20260906004130 76 322 0.0 0.9 0.00 0.00 0.00 72 1018.6
20260906003120 77 322 0.0 0.0 0.00 0.00 0.00 70 1018.6
20260906001117 78 325 0.0 4.3 0.00 0.00 0.00 70 1018.6
20260906000120 78 325 0.0 7.8 0.00 0.00 0.00 69 1018.5
20260905235113 77 334 0.0 1.7 0.00 0.00 0.00 69 1018.5
20260905234121 77 304 0.0 0.0 0.00 0.00 0.00 70 1018.4
20260905233140 77 304 0.0 0.0 0.00 0.00 0.00 70 1018.4
20260905232141 77 304 0.0 0.0 0.00 0.00 0.00 70 1018.3
20260905231117 77 304 0.0 0.0 0.00 0.00 0.00 70 1018.2
20260905225112 78 302 0.0 0.0 0.00 0.00 0.00 70 1018.1
20260905224138 78 302 0.0 0.9 0.00 0.00 0.00 70 1017.9
20260905223104 78 302 0.0 0.9 0.00 0.00 0.00 70 1017.9
20260905222120 78 301 0.0 0.9 0.00 0.00 0.00 69 1017.8
20260905221134 78 301 0.0 0.9 0.00 0.00 0.00 69 1017.8
20260905220144 79 301 0.0 0.9 0.00 0.00 0.00 69 1017.7
20260905214115 79 300 0.0 1.7 0.00 0.00 0.00 68 1017.7
20260905213116 79 300 0.0 5.2 0.00 0.00 0.00 68 1017.7
20260905212140 79 298 0.0 0.0 0.00 0.00 0.00 68 1017.5
20260905211131 79 297 0.0 0.0 0.00 0.00 0.00 68 1017.3
20260905210104 80 297 0.0 0.0 0.00 0.00 0.00 67 1017.2
20260905205111 80 297 0.0 0.0 0.00 0.00 0.00 66 1017.1
20260905204122 80 297 0.0 0.0 0.00 0.00 0.00 65 1017.1
20260905203103 80 297 0.0 0.0 0.00 0.00 0.00 66 1017.0
20260905201128 80 298 0.0 2.6 0.00 0.00 0.00 66 1016.8
20260905195115 81 298 0.0 0.0 0.00 0.00 0.00 65 1016.6
20260905194136 81 298 0.0 0.0 0.00 0.00 0.00 65 1016.6
20260905193133 82 298 0.0 0.0 0.00 0.00 0.00 64 1016.4
20260905192125 82 298 0.0 0.0 0.00 0.00 0.00 63 1016.2
20260905191119 83 302 0.9 5.2 0.00 0.00 0.00 63 1016.1
20260905190122 83 303 0.0 3.5 0.00 0.00 0.00 62 1015.9
20260905185110 84 80 0.0 0.0 0.00 0.00 0.00 60 1015.7
20260905183128 85 85 0.0 0.0 0.00 0.00 0.00 57 1015.5
20260905182106 86 85 0.0 0.0 0.00 0.00 0.00 56 1015.3
20260905181141 86 85 0.0 0.0 0.00 0.00 0.00 55 1015.1
20260905180138 86 85 0.0 0.0 0.00 0.00 0.00 55 1014.9
20260905175107 87 90 0.0 0.0 0.00 0.00 0.00 55 1014.9
20260905172127 88 91 0.0 0.0 0.00 0.00 0.00 54 1014.4
20260905171138 88 92 0.0 0.0 0.00 0.00 0.00 54 1014.4
20260905170101 89 89 0.0 1.7 0.00 0.00 0.00 52 1014.3
20260905165110 90 166 0.0 0.0 0.00 0.00 0.00 50 1014.2
20260905164138 90 175 0.0 1.7 0.00 0.00 0.00 49 1014.1
20260905163132 90 176 0.0 1.7 0.00 0.00 0.00 49 1014.0
20260905162108 90 167 0.0 3.5 0.00 0.00 0.00 49 1013.9
20260905160146 91 139 0.0 0.9 0.00 0.00 0.00 48 1013.8
20260905154139 90 171 0.0 0.0 0.00 0.00 0.00 49 1013.7
20260905153141 91 162 0.0 6.1 0.00 0.00 0.00 48 1013.7
20260905151122 92 205 0.0 4.3 0.00 0.00 0.00 47 1013.6
20260905145141 93 190 0.0 1.7 0.00 0.00 0.00 47 1013.6
20260905144127 92 209 0.0 0.9 0.00 0.00 0.00 47 1013.5
20260905142101 92 148 0.0 4.3 0.00 0.00 0.00 47 1013.7
20260905140141 93 188 0.0 1.7 0.00 0.00 0.00 46 1013.9
20260905135137 92 203 0.0 0.9 0.00 0.00 0.00 47 1014.0
20260905134145 93 192 0.0 4.3 0.00 0.00 0.00 46 1014.0
20260905133104 92 210 0.0 3.5 0.00 0.00 0.00 46 1014.1
20260905131108 92 221 0.0 0.0 0.00 0.00 0.00 47 1014.3
20260905130122 91 208 0.0 6.1 0.00 0.00 0.00 47 1014.4
20260905125138 91 222 0.0 0.9 0.00 0.00 0.00 49 1014.4
20260905124129 90 145 0.0 4.3 0.00 0.00 0.00 49 1014.5
20260905123102 90 159 0.0 1.7 0.00 0.00 0.00 50 1014.5
20260905122135 90 211 0.0 0.9 0.00 0.00 0.00 49 1014.7
20260905120121 90 173 0.9 6.1 0.00 0.00 0.00 49 1014.8
20260905115110 90 175 0.0 0.9 0.00 0.00 0.00 48 1014.9
20260905114112 89 180 0.0 0.0 0.00 0.00 0.00 49 1014.9
20260905113146 88 179 0.0 5.2 0.00 0.00 0.00 51 1015.0
20260905112123 89 183 0.0 5.2 0.00 0.00 0.00 49 1015.1
20260905111123 89 208 0.0 0.0 0.00 0.00 0.00 48 1015.1
20260905110144 88 196 0.0 0.0 0.00 0.00 0.00 50 1015.1
20260905105130 87 203 0.0 0.9 0.00 0.00 0.00 51 1015.2